Regional Weather Roundup
Issued by NWS Kansas City/Pleasant Hill, MO

Home | Current Version | Previous Version | Graphics & Text | Print | Product List | Glossary Off
Versions: 1 2 3 4 5 6 7 8 9 10 11 12 13 14 15 16 17 18 19 20 21 22 23 24 25 26 27 28 29 30 31 32 33 34 35 36 37 38 39 40 41 42 43 44 45 46 47 48 49 50

064
ASUS43 KEAX 020610
RWREAX

WEATHER ROUNDUP FOR EASTERN KANSAS AND NORTHWEST MISSOURI
NATIONAL WEATHER SERVICE KANSAS CITY/PLEASANT HILL MO
100 AM CDT MON MAY 02 2016

KSZ040-057-103>105-MOZ028-029-037-043-020700-
...KANSAS CITY METROPOLITAN AREA...

CITY           SKY/WX    TMP DP  RH WIND       PRES   REMARKS
K.C. INTL      CLOUDY    48  44  86 NW5       30.15R
6HR MIN TEMP:  48; 6HR MAX TEMP:  52;

K.C. DOWNTOWN  CLOUDY    51  44  77 NW8       30.14S
6HR MIN TEMP:  51; 6HR MAX TEMP:  56;

LEES SUMMIT    CLOUDY    50  44  80 N8        30.14S
6HR MIN TEMP:  50; 6HR MAX TEMP:  57;

OLATHE - IXD   CLOUDY    49  44  83 NW7       30.16R
6HR MIN TEMP:  49; 6HR MAX TEMP:  55;

OLATHE - OJC   CLOUDY    49  43  80 NW8       30.14F
6HR MIN TEMP:  49; 6HR MAX TEMP:  56;

LAWRENCE       CLOUDY    49  44  83 NW7       30.16S

$$

MOZ001>008-011>017-020>025-030>033-038>040-044>046-053-054-020700-
...NORTHERN AND CENTRAL MISSOURI...

CITY           SKY/WX    TMP DP  RH WIND       PRES   REMARKS
ST. JOSEPH     CLOUDY    49  44  83 NW7       30.15S
6HR MIN TEMP:  49; 6HR MAX TEMP:  51; 6HR PCP: TRACE;

MOSBY          CLOUDY    50  45  81 NW5       30.14S
WARRENSBURG    CLOUDY    50  45  81 NW7       30.13S
WHITEMAN AFB   CLOUDY    51  48  92 N8        30.11S
6HR MIN TEMP:  51; 6HR MAX TEMP:  58;

CLINTON        CLOUDY    50  46  87 N7        30.13S
SEDALIA        CLOUDY    51  46  83 N8        30.13R
6HR MIN TEMP:  51; 6HR MAX TEMP:  60; 6HR PCP: TRACE;

WARSAW         NOT AVBL
CHILLICOTHE      N/A     50  46  86 NW5       30.14R
6HR MIN TEMP:  50; 6HR MAX TEMP:  53;

KIRKSVILLE     CLOUDY    48  45  89 NW6       30.10S
6HR MIN TEMP:  48; 6HR MAX TEMP:  49; 6HR PCP: TRACE;


$$

MOZ041-047>049-056>058-063>065-088>090-097-020700-
...EASTERN AND SOUTHERN MISSOURI...

CITY           SKY/WX    TMP DP  RH WIND       PRES   REMARKS
ST. LOUIS INTL PTCLDY    54  49  83 NW10      30.04R
6HR MIN TEMP:  54; 6HR MAX TEMP:  68;

SPIRIT OF STL  CLEAR     53  49  86 W8        30.04R
COLUMBIA       CLOUDY    52  45  77 NW12      30.11R
JEFFERSON CITY CLOUDY    52  45  77 NW9       30.10S
ROLLA          CLEAR     49  46  90 NW8       30.07R
OSAGE BEACH    PTCLDY    48  39  71 CALM      30.11R
SPRINGFIELD    CLOUDY    53  47  79 N7        30.09R
JOPLIN         LGT RAIN  52  48  86 N8        30.12S
WEST PLAINS    MOCLDY    56  43  61 N9        30.05S

$$

IAZ060-094-KSZ022-034>040-054-083-096-NEZ052-066-093-020700-
...KANSAS...SOUTHEAST NEBRASKA AND IOWA...

CITY           SKY/WX    TMP DP  RH WIND       PRES   REMARKS
TOPEKA         CLOUDY    49  43  80 NW6       30.17S
6HR MIN TEMP:  49; 6HR MAX TEMP:  51;

MANHATTAN      CLOUDY    49  42  77 N3        30.19S
EMPORIA        CLOUDY    48  42  80 N6        30.17S
CHANUTE        CLOUDY    52  45  77 N5        30.14S
WICHITA        CLOUDY    49  42  77 N10       30.18S
OMAHA          CLOUDY    50  45  83 CALM      30.16R
LINCOLN        CLOUDY    49  43  80 NW3       30.19S
FALLS CITY     CLOUDY    47  44  90 NW5       30.16S
LAMONI         CLOUDY    46  45  96 NW6       30.12R
DES MOINES     MOCLDY    48  44  86 N7        30.12R

$$





USA.gov is the U.S. government's official web portal to all federal, state and local government web resources and services.